Tracking 31027 objects as of 19-Jul-2025
HD Live streaming from Space Station
objects crossing your sky now

AMC-8 (GE-8)

Track AMC-8 (GE-8) now!
AMC-8 (GE-8) is classified as:


NORAD ID: 26639
Int'l Code: 2000-081B
Perigee: 36,099.7 km
Apogee: 36,122.9 km
Inclination: 5.3 °
Period: 1,452.4 minutes
Semi major axis: 42482 km
RCS: 25.1189 m2 (large)
Launch date: December 20, 2000
Source: SOCIETE EUROPEENNE DES SATELLITES (SES)
Launch site: FRENCH GUIANA (FRGUI)

Cable television and radio programming; 24 C-band; CONUS, Alaska, Hawaii, Caribbean
Your satellite tracking list
CZ-4C DEB
Track 1 satellite(s)




NASA's NSSDC Master Catalog

Two Line Element Set (TLE):
1 26639U 00081B   25199.54296480 -.00000141  00000-0  00000-0 0  9996
2 26639   5.2619  76.6553 0002739 225.7207 121.0171  0.99149590 89870
Source of the keplerian elements: AFSPC